Orbital elements: 2011 DQ Earth MOID = 0.0238 AU Epoch 2011 Feb. 8.0 TT = JDT 2455600.5 MPC M 345.51677 (2000.0) P Q n 0.51672104 Peri. 194.83417 -0.97898961 -0.19883022 a 1.5380317 Node 333.56703 +0.19590305 -0.85556540 e 0.3440907 Incl. 5.83185 +0.05658038 -0.47798996 P 1.91 H 26.3 G 0.15 U 7